STARLINK-1920, 46751

Orbit data source: Space-Track

STARLINK-1920, 46751 is a payload satellite owned by SpaceX/Seattle (US) in LEO that was launched on Sat, 24 Oct 2020 UTC via an FALCON 9 launch vehicle from the Air Force Eastern Test Range (AFETR). Payloads include a variety of satellites, spacecraft, and rockets equipped with specific instruments for various scientific and technological missions. These include communications satellites like Starlink; space stations such as the ISS; scientific satellites like the Hubble; Earth observation satellites from companies like Planet Labs, Umbra, and HawkEye 360; GPS; miniature CubeSats for education and research; and military/defense satellites.

Loading next visibility...
STARLINK-1920 details
Identifier
46751, 2020-074N
Orbit
LEO
Last TLE update7 hours ago
Origin
Flag of USSpaceX/Seattle (US)
ManufacturerSpaceX/Seattle
MissionPartially operational Commercial Communications
Bus & MotorSTARLINK, Unknown motor
Mass260 kg wet, ~248 kg dry
Launch date (UTC)
2020-10-24 (4 years ago)
Launch vehicle
FALCON 9
Launch site
Air Force Eastern Test Range (AFETR)
Object type
Payload
Rocket body
Debris
Shape & HBRBox + 1 Pan, 8.86 m
Radar Cross Section13.562 m², Large (>1 m²)

Expand to show TLE details & history

TLE from 7 hours ago
0 STARLINK-1920
1 46751U 20074N   24361.54070965  .00146977  00000-0  35174-2 0  9994
2 46751  53.0514 116.0082 0004852 322.3462  37.7202 15.40433754230813
Epoch: 2024-12-26T12:58Z
Definitive object data (Epoch: 2024-12-26T12:58:37.313Z)
Latitude-0°
Longitude-174.16591°
Altitude443.102 km
Speed7.649 km/s
True Right ascension07h 44m 01s
True Declination0° 00' 00"
Sunlit
Object was in full shadow at TLE epoch
Visualization TLE readout
Latitude26.71091°
Longitude-17.62713°
Altitude449.086 km
Speed7.645 km/s
Apparent Right ascension15h 15m 28s
Apparent Declination-28° 00' 29"
Sunlit
Object is in daylight
Visualization observer readout
Local Sidereal Time19:12:53
Azimuth229.492° WSW
Elevation2.513°
Doppler factor1
Orbital elements
Apogee altitude448.414 km
Perigee altitude441.793 km
Semi-major axis6,823.24 km
Eccentricity0.0004852
Inclination53.0514°
RAAN116.0082°
Arg. of periapsis322.3462°
True anomaly37.75423°
Mean anomaly37.7202°
Eccentric anomaly37.73721°
Mean motion3.85085 °/min
BSTAR0.0035174
Orbital period93.49 mins
Loading maneuver chart data...

STARLINK-1920 Visibility forecast

Observer location: undefined°, undefined

Span
Click to sort rows by Start time (UTC) header in descending order
Start Az.
Max El. time (UTC)
Max El. Az.
Max El.
End time (UTC)
End Az.
4 mins2024-12-27 09:22:09.629Z167.486° S2024-12-27 09:24:09.629Z131.825° SE15.554°2024-12-27 09:26:09.629Z93.569° ESE
5 mins2024-12-27 10:59:09.629Z253.125° W2024-12-27 11:01:09.629Z317.354° NNW38.49°2024-12-27 11:04:09.629Z40.079° NE
5 mins2024-12-27 17:31:09.629Z301.174° NW2024-12-27 17:33:09.629Z257.256° W41.182°2024-12-27 17:36:09.629Z142.543° SSE
|